This demonstration page uses our WeatherBlox Daily Observations layout. Learn more.

39.92423, -83.80882

Hourly Observations for August 30, 2018

Temp ( °F °C ) Dew Point ( °F °C ) Humidity (%) Winds ( mph kmh ) Pressure ( in mb ) Visibility ( mi km ) Precip ( " mm )
12:06 am 00:06 Clear with Mist and Fog 68 20 68 20 100 100 Calm 30.09 1019 1 1.60934 0 0
12:25 am 00:25 Mostly Cloudy with Mist and Fog 70 21 70 21 100 100 Calm 30.09 1019 0.75 1.207005 0 0
12:52 am 00:52 Cloudy with Mist and Fog 70 21 70 21 100 100 Calm 30.09 1019 1 1.60934 0 0
12:56 am 00:56 Cloudy with Mist and Fog 69 20.6 69 20.6 100 100 Calm 30.11 1020 1 1.60934 0 0
1:03 am 01:03 Cloudy with Mist and Fog 70 21 70 21 100 100 Calm 30.09 1019 2 3.21868 0 0
1:11 am 01:11 Cloudy with Mist and Fog 70 21 70 21 100 100 Calm 30.09 1019 4 6.43736 0 0
1:15 am 01:15 Cloudy with Mist and Fog 70 21 70 21 100 100 Calm 30.09 1019 1.75 2.816345 0 0
1:23 am 01:23 Cloudy with Mist and Fog 70 21 70 21 100 100 Calm 30.09 1019 3 4.82802 0 0
1:56 am 01:56 Partly Cloudy 69 20.6 69 20.6 100 100 Calm 30.11 1020 7 11.26538 0 0
2:56 am 02:56 Clear 69 20.6 69 20.6 100 100 NNW 5 7 30.1 1019 10 16.0934 0 0
3:56 am 03:56 Mostly Clear 69 20.6 69 20.6 100 100 Calm 30.1 1019 10 16.0934 0 0
4:56 am 04:56 Clear with Mist and Fog 69 20.6 69 20.6 100 100 NNW 3 6 30.1 1019 5 8.0467 0 0
5:56 am 05:56 Clear 68 20 68 20 100 100 N 6 9 30.11 1020 10 16.0934 0 0
6:48 am 06:48 Cloudy 68 20 68 20 100 100 N 8 13 30.12 1020 10 16.0934 0 0
6:56 am 06:56 Cloudy 68 20 68 20 100 100 N 6 9 30.14 1021 10 16.0934 0 0
7:07 am 07:07 Cloudy 68 20 68 20 100 100 N 8 13 30.12 1020 10 16.0934 0 0
7:37 am 07:37 Partly Cloudy 68 20 68 20 100 100 N 7 11 30.12 1020 10 16.0934 0 0
7:56 am 07:56 Mostly Cloudy 68 20 68 20 100 100 N 8 13 30.16 1021 10 16.0934 0 0
8:56 am 08:56 Mostly Cloudy 70 21.1 68 20 93 93 N 9 15 30.16 1021 10 16.0934 0 0
9:49 am 09:49 Cloudy 72 22 68 20 88 88 N 9 15 30.15 1021 10 16.0934 0 0
9:56 am 09:56 Cloudy 71 21.7 68 20 90 90 N 8 13 30.16 1021 10 16.0934 0 0
10:56 am 10:56 Cloudy 72 22.2 68 20 87 87 NE 7 11 30.17 1022 10 16.0934 0 0
11:54 am 11:54 Cloudy 73 23 68 20 83 83 NNE 3 6 30.15 1021 10 16.0934 0 0
11:56 am 11:56 Cloudy 73 22.8 68 20 84 84 N 5 7 30.18 1022 10 16.0934 0 0
12:56 pm 12:56 Cloudy 75 23.9 68 20 79 79 Calm 30.16 1021 10 16.0934 0 0
1:36 pm 13:36 Cloudy 77 25 68 20 74 74 Calm 30.15 1021 10 16.0934 0 0
1:56 pm 13:56 Mostly Cloudy 78 25.6 69 20.6 74 74 NNE 3 6 30.14 1021 10 16.0934 0 0
2:56 pm 14:56 Mostly Sunny 80 26.7 68 20 67 67 VRB 5 7 30.12 1020 10 16.0934 0 0
3:56 pm 15:56 Mostly Cloudy 82 27.8 69 20.6 65 65 NNE 3 6 30.11 1020 10 16.0934 0 0
4:56 pm 16:56 Mostly Cloudy 81 27.2 68 20 65 65 N 6 9 30.11 1020 10 16.0934 0 0
5:56 pm 17:56 Sunny 81 27.2 68 20 65 65 N 8 13 30.1 1019 10 16.0934 0 0
6:56 pm 18:56 Sunny 79 26.1 68 20 69 69 NNW 6 9 30.1 1019 10 16.0934 0 0
7:56 pm 19:56 Sunny 74 23.3 68 20 82 82 N 6 9 30.11 1020 10 16.0934 0 0
8:56 pm 20:56 Clear 71 21.7 68 20 90 90 Calm 30.13 1020 10 16.0934 0 0
9:56 pm 21:56 Clear 71 21.7 68 20 90 90 N 7 11 30.14 1021 10 16.0934 0 0
10:56 pm 22:56 Clear 69 20.6 67 19.4 93 93 NNE 7 11 30.14 1021 10 16.0934 0 0
11:56 pm 23:56 Mostly Cloudy 67 19.4 66 18.9 97 97 NE 6 9 30.15 1021 10 16.0934 0 0

Powered by AerisWeather